Lid_Strength_Index
11 14 14 12 10 10 11 13 14 12 10 11 11 10 9 9 7 7 7 6 6 5 3 3 3 2 2 2 2 3 4 4 4 4 5 5 5 4 5 4 4 4 4 4
13 15 10 9 9 11 12 13 14 12 10 11 11 11 9 7 8 6 6 6 6 5 4 4 4 4 3 2 3 4 4 4 4 4 4 3 4 5 5 4 5 5 5 5
14 14 12 10 11 13 12 14 14 14 11 11 11 13 10 8 8 8 7 5 5 5 5 5 5 3 2 2 3 4 4 4 4 4 4 4 4 4 4 5 6 7 7 7
12 11 12 12 13 11 15 10 11 13 14 17 11 18 12 9 9 10 9 8 7 7 5 4 5 4 3 3 3 4 4 4 5 5 4 4 4 5 5 5 8 9 9 10
12 11 12 13 12 10 13 10 12 12 14 14 15 17 13 10 11 9 9 8 8 7 6 6 6 5 5 5 4 6 6 6 5 4 4 4 4 5 6 9 10 10 10 10
12 10 12 11 10 10 9 11 12 12 14 19 15 16 15 12 11 9 9 9 9 8 8 7 6 6 7 7 6 7 7 7 6 5 5 5 6 8 10 11 11 11 10 8
13 13 12 12 12 10 11 13 19 20 20 20 15 16 14 10 10 10 9 9 9 9 8 8 8 8 8 8 8 8 8 9 8 8 9 9 10 11 11 12 12 11 10 9
16 17 15 12 12 13 12 13 17 21 20 18 16 18 14 11 11 10 9 9 9 9 9 8 8 8 8 9 10 11 11 12 12 12 12 11 12 12 12 12 12 11 10 9
16 17 14 12 12 12 13 15 13 16 18 17 15 14 12 13 13 12 11 11 11 10 9 9 9 9 9 10 12 12 12 12 12 12 12 13 13 13 13 12 12 11 10 11
13 17 15 13 11 11 12 13 17 16 21 22 16 17 14 15 14 14 12 11 10 10 9 9 9 10 11 12 13 13 13 13 13 13 13 14 14 13 13 12 12 11 10 11
12 13 16 13 15 15 15 16 15 15 16 19 20 15 13 15 14 14 13 11 10 10 9 9 10 10 12 13 14 14 14 14 14 14 15 14 14 13 13 12 11 11 12 11
12 14 17 17 15 13 13 14 14 17 18 17 17 15 14 14 13 13 13 12 10 10 10 10 10 12 14 14 15 15 15 15 15 15 15 14 13 13 12 12 11 12 11 11
12 15 18 17 15 14 15 15 14 16 16 18 18 15 14 13 12 11 12 11 11 11 10 10 12 13 14 14 14 15 15 15 15 15 14 13 13 13 12 12 12 11 12 12
11 14 16 16 16 14 16 15 14 14 17 16 16 13 12 13 13 12 12 11 11 11 11 11 11 12 13 13 14 15 15 15 15 14 13 13 13 12 12 13 12 12 12 13
12 14 16 16 16 15 15 15 14 15 13 15 13 14 11 9 11 11 10 11 11 12 11 11 11 11 13 14 14 14 14 14 14 14 13 13 13 13 12 12 12 13 13 13
14 15 17 17 17 17 18 15 13 14 13 13 13 13 10 9 10 11 11 12 12 12 11 11 11 11 12 14 14 14 14 14 14 13 13 13 12 12 12 13 13 13 14 14
14 16 16 16 20 20 18 17 15 14 12 12 15 12 10 11 11 11 11 11 12 11 11 11 11 11 12 13 13 14 14 14 14 13 13 12 12 12 13 14 14 14 14 14
17 17 18 16 20 20 15 15 14 14 13 12 12 12 12 12 12 12 12 12 11 11 10 10 11 11 10 11 12 13 14 14 13 13 12 12 13 14 14 14 14 14 14 15
14 14 19 17 17 17 15 17 16 16 16 14 13 13 14 15 15 14 13 13 12 10 9 8 8 9 9 10 11 12 13 12 13 13 13 13 13 14 14 15 15 15 15 15
17 15 14 20 18 19 14 15 14 14 17 14 14 15 15 15 15 13 13 13 12 12 10 9 9 9 10 9 11 12 13 12 12 13 13 14 14 14 14 15 16 16 16 17
18 19 17 21 17 16 13 14 13 15 14 14 13 13 14 14 12 11 12 12 12 11 10 10 10 10 9 10 10 11 12 12 13 13 14 15 14 15 15 16 16 17 17 17
18 18 19 21 19 19 15 14 15 12 14 13 13 13 13 12 12 11 12 12 12 11 11 10 10 10 11 10 10 12 12 13 13 14 15 16 16 16 17 17 17 18 17 17
16 15 16 16 15 15 15 14 13 13 12 13 13 12 12 12 12 12 11 12 12 11 12 11 11 12 12 11 11 13 14 14 15 16 18 18 18 17 17 17 18 18 17 17
16 17 15 16 13 15 14 14 14 13 13 12 12 12 12 12 12 12 12 12 12 12 13 13 13 13 14 13 13 13 14 16 18 18 18 18 18 18 18 17 17 17 17 17
15 15 16 16 14 14 13 13 12 12 13 13 13 13 12 12 12 12 12 12 12 13 13 13 13 14 14 14 15 15 17 17 18 18 18 18 18 18 18 17 17 17 16 16
16 15 14 13 11 12 12 11 12 13 12 12 13 14 14 13 12 12 12 12 12 13 14 14 14 15 15 15 16 17 17 17 18 19 19 18 18 18 18 18 17 15 15 15